Change the Weather History Date:

Monday, April 29, 2013

  Actual Average Record
Temperature  
Mean Temperature 74 °F -  
Max Temperature 81 °F 79 °F 90 °F (2002)
Min Temperature 66 °F 63 °F 60 °F (2001)
Cooling Degree Days 8    
Growing Degree Days 24 (Base 50)    
Moisture  
Dew Point 64 °F    
Average Humidity 76    
Maximum Humidity 96    
Minimum Humidity 52    
Precipitation  
Precipitation 0.26 in - - ()
Sea Level Pressure  
Sea Level Pressure 29.99 in    
Wind  
Wind Speed 8 mph (SSE)    
Max Wind Speed 26 mph    
Max Gust Speed 31 mph    
Visibility 10 miles    
Events Rain , Thunderstorm    
Averages and records for this station are not official NWS values.
T = Trace of Precipitation, MM = Missing Value Source: NWS Daily Summary

Daily Weather History Graph

Daily Weather History Graph

Search for Another Location

Airport or City:

Trip Planner

Search our weather history database for the weather conditions in past years. The results will help you decide how hot, cold, wet, or windy it might be!

Date:

Astronomy

Apr. 29, 2013 Rise Set
Actual Time 6:45 AM EDT 8:03 PM EDT
Civil Twilight 6:19 AM EDT 8:28 PM EDT
Nautical Twilight 5:49 AM EDT 8:58 PM EDT
Astronomical Twilight 5:18 AM EDT 9:30 PM EDT
Moon No Moon Rise 10:11 AM EDT (4/29)
Length of Visible Light 14h 08m
Length of Day
13h 18m
Waning Gibbous, 80% of the Moon is Illuminated
Apr 29
Waning Gibbous
May 2
Last Quarter
May 9
New
May 18
First Quarter
May 25
Full

Hourly Weather History & Observations

Time (EDT) Temp. Heat Index Dew Point Humidity Pressure Visibility Wind Dir Wind Speed Gust Speed Precip Events Conditions
12:53 AM 71.1 °F - 62.1 °F 73% 30.04 in 10.0 mi South 5.8 mph - N/A   Mostly Cloudy
1:53 AM 70.0 °F - 62.1 °F 76% 30.03 in 10.0 mi SSW 5.8 mph - N/A   Mostly Cloudy
2:53 AM 70.0 °F - 63.0 °F 78% 30.01 in 10.0 mi South 8.1 mph - N/A   Mostly Cloudy
3:53 AM 70.0 °F - 62.1 °F 76% 30.01 in 10.0 mi South 6.9 mph - N/A   Overcast
4:53 AM 70.0 °F - 63.0 °F 78% 30.01 in 10.0 mi South 8.1 mph - N/A   Overcast
5:53 AM 70.0 °F - 63.0 °F 78% 30.01 in 10.0 mi SW 5.8 mph - N/A   Mostly Cloudy
6:53 AM 70.0 °F - 63.0 °F 78% 30.01 in 10.0 mi South 6.9 mph - N/A   Mostly Cloudy
7:53 AM 70.0 °F - 64.0 °F 81% 30.02 in 10.0 mi SSE 9.2 mph - N/A   Mostly Cloudy
8:53 AM 71.1 °F - 64.0 °F 78% 30.03 in 10.0 mi South 11.5 mph - N/A   Overcast
9:53 AM 72.0 °F - 64.0 °F 76% 30.03 in 10.0 mi South 11.5 mph - N/A   Mostly Cloudy
10:53 AM 75.0 °F - 64.9 °F 71% 30.04 in 10.0 mi South 12.7 mph - N/A   Mostly Cloudy
11:53 AM 79.0 °F - 62.1 °F 56% 30.02 in 10.0 mi South 12.7 mph 20.7 mph N/A   Mostly Cloudy
12:53 PM 80.1 °F 81.5 °F 63.0 °F 56% 30.01 in 10.0 mi South 9.2 mph - N/A   Mostly Cloudy
1:53 PM 80.1 °F 81.5 °F 63.0 °F 56% 29.99 in 10.0 mi South 8.1 mph - N/A   Mostly Cloudy
2:53 PM 81.0 °F 81.9 °F 62.1 °F 52% 29.96 in 10.0 mi WSW 10.4 mph - N/A   Overcast
3:53 PM 75.9 °F - 64.0 °F 67% 29.94 in 10.0 mi East 6.9 mph - N/A   Overcast
4:13 PM 75.2 °F - 64.4 °F 69% 29.94 in 10.0 mi East 6.9 mph - 0.00 in Rain Light Rain
4:16 PM 75.2 °F - 64.4 °F 69% 29.94 in 10.0 mi East 6.9 mph - 0.00 in Rain Light Rain
4:23 PM 75.2 °F - 66.2 °F 73% 29.95 in 10.0 mi ESE 6.9 mph - 0.00 in Thunderstorm Thunderstorm
4:53 PM 72.0 °F - 66.0 °F 81% 29.94 in 10.0 mi East 10.4 mph - 0.00 in Thunderstorm Thunderstorm
5:36 PM 71.6 °F - 62.6 °F 73% 29.94 in 10.0 mi ESE 6.9 mph - N/A   Mostly Cloudy
5:53 PM 73.9 °F - 63.0 °F 68% 29.93 in 10.0 mi ESE 5.8 mph - N/A   Mostly Cloudy
6:49 PM 75.2 °F - 64.4 °F 69% 29.96 in 10.0 mi NNW 17.3 mph 23.0 mph N/A Thunderstorm Thunderstorm
6:53 PM 73.9 °F - 64.0 °F 71% 29.95 in 10.0 mi NNW 25.3 mph 31.1 mph 0.00 in Rain , Thunderstorm Light Thunderstorms and Rain
7:04 PM 71.6 °F - 64.4 °F 78% 29.96 in 6.0 mi NNW 26.5 mph - 0.03 in Rain , Thunderstorm Light Thunderstorms and Rain
7:53 PM 66.9 °F - 64.9 °F 93% 29.98 in 6.0 mi North 9.2 mph - 0.12 in Rain , Thunderstorm Light Thunderstorms and Rain
8:53 PM 66.0 °F - 64.9 °F 96% 30.00 in 4.0 mi Calm Calm - 0.14 in Rain , Thunderstorm Light Thunderstorms and Rain
9:19 PM 66.2 °F - 62.6 °F 88% 29.99 in 7.0 mi Calm Calm - N/A Rain Light Rain
9:48 PM 66.2 °F - 64.4 °F 94% 29.99 in 10.0 mi ESE 4.6 mph - N/A   Mostly Cloudy
9:53 PM 66.9 °F - 64.9 °F 93% 29.98 in 10.0 mi Calm Calm - N/A   Mostly Cloudy
10:53 PM 66.9 °F - 64.9 °F 93% 29.99 in 10.0 mi NNE 6.9 mph - N/A   Scattered Clouds
11:53 PM 66.0 °F - 64.0 °F 93% 29.97 in 10.0 mi East 3.5 mph - N/A   Scattered Clouds